Weather History for Custer, SD

Change the Weather History Date:

Thursday, February 14, 2013

  Actual Average Record
Temperature  
Mean Temperature 13 °F 25 °F  
Max Temperature 24 °F 36 °F 53 °F (1979)
Min Temperature 2 °F 15 °F -17 °F (2007)
Degree Days  
Heating Degree Days 52 40  
Month to date heating degree days 532 565  
Since 1 July heating degree days 4941 5300  
Cooling Degree Days 0 0  
Month to date cooling degree days 0 0  
Year to date cooling degree days 0 0  
Moisture  
Dew Point 6 °F    
Average Humidity 66    
Maximum Humidity 87    
Minimum Humidity 44    
Precipitation  
Precipitation T in 0.02 in 0.52 in (1987)
Month to date precipitation 0.05 0.27  
Year to date precipitation 0.85 0.60  
Sea Level Pressure  
Sea Level Pressure 30.17 in    
Wind  
Wind Speed 9 mph (NW)    
Max Wind Speed 23 mph    
Max Gust Speed 43 mph    
Visibility 10 miles    
Events Snow    
T = Trace of Precipitation, MM = Missing Value Source: NWS Daily Summary

Daily Weather History Graph

Daily Weather History Graph

Search for Another Location

Airport:

Trip Planner

Search our weather history database for the weather conditions in past years. The results will help you decide how hot, cold, wet, or windy it might be!

Date:

Astronomy

Feb. 14, 2013 Rise Set
Actual Time 6:54 AM MST 5:23 PM MST
Civil Twilight 6:24 AM MST 5:53 PM MST
Nautical Twilight 5:51 AM MST 6:26 PM MST
Astronomical Twilight 5:17 AM MST 7:00 PM MST
Moon 8:46 AM MST (2/14) 10:41 PM MST (2/14)
Length of Visible Light 11h 28m
Length of Day
10h 29m
Waxing Crescent, 22% of the Moon is Illuminated
Feb 14
Waxing Crescent
Feb 17
First Quarter
Feb 25
Full
Mar 4
Last Quarter
Mar 11
New

Hourly Weather History & Observations

Time (MST) Temp. Windchill Dew Point Humidity Pressure Visibility Wind Dir Wind Speed Gust Speed Precip Events Conditions
12:53 AM 21.9 °F 13.4 °F 12.0 °F 66% 29.98 in 10.0 mi NW 6.9 mph - N/A   Partly Cloudy
1:53 AM 21.0 °F 16.2 °F 8.1 °F 57% 30.01 in 10.0 mi Variable 3.5 mph - N/A   Mostly Cloudy
2:53 AM 19.0 °F 13.9 °F 10.0 °F 68% 30.03 in 10.0 mi Variable 3.5 mph - N/A   Clear
3:53 AM 21.0 °F 12.4 °F 10.9 °F 65% 30.01 in 10.0 mi NW 6.9 mph 16.1 mph N/A   Mostly Cloudy
4:53 AM 21.9 °F 8.7 °F 8.1 °F 55% 30.03 in 10.0 mi NW 15.0 mph 27.6 mph N/A   Overcast
5:53 AM 21.0 °F 9.9 °F 9.0 °F 60% 30.05 in 10.0 mi NW 10.4 mph 26.5 mph N/A   Overcast
6:53 AM 19.9 °F 7.3 °F 8.1 °F 60% 30.07 in 10.0 mi NW 12.7 mph 27.6 mph N/A   Clear
7:53 AM 19.9 °F 11.1 °F 8.1 °F 60% 30.11 in 10.0 mi Variable 6.9 mph 25.3 mph N/A   Scattered Clouds
8:04 AM 19.4 °F 5.5 °F 8.6 °F 63% 29.98 in 10.0 mi NW 15.0 mph 27.6 mph N/A   Mostly Cloudy
8:53 AM 19.9 °F 5.7 °F 10.0 °F 65% 30.15 in 6.0 mi NNW 16.1 mph 26.5 mph 0.00 in Snow Light Snow
9:31 AM 21.2 °F 5.2 °F 6.8 °F 54% 30.03 in 10.0 mi NNW 21.9 mph 39.1 mph 0.00 in   Scattered Clouds
9:45 AM 19.4 °F 4.5 °F 8.6 °F 63% 30.04 in 10.0 mi NW 17.3 mph 29.9 mph 0.00 in   Mostly Cloudy
9:53 AM 21.0 °F 8.1 °F 9.0 °F 60% 30.18 in 10.0 mi NW 13.8 mph 28.8 mph 0.00 in   Mostly Cloudy
10:03 AM 21.2 °F 10.1 °F 8.6 °F 58% 30.04 in 10.0 mi NW 10.4 mph 31.1 mph 0.00 in   Scattered Clouds
10:53 AM 23.0 °F 11.7 °F 7.0 °F 50% 30.20 in 10.0 mi NW 11.5 mph 21.9 mph 0.00 in   Partly Cloudy
11:53 AM 21.9 °F 11.0 °F 5.0 °F 48% 30.22 in 10.0 mi NNW 10.4 mph 26.5 mph N/A   Mostly Cloudy
12:53 PM 23.0 °F 13.9 °F 3.0 °F 42% 30.22 in 10.0 mi NW 8.1 mph 20.7 mph 0.00 in   Mostly Cloudy
1:53 PM 23.0 °F 8.7 °F 8.1 °F 53% 30.24 in 10.0 mi WNW 18.4 mph 26.5 mph 0.00 in   Mostly Cloudy
2:41 PM 21.2 °F 8.3 °F 8.6 °F 58% 30.09 in 9.0 mi NW 13.8 mph 29.9 mph 0.00 in Snow Light Snow
2:53 PM 21.0 °F 10.6 °F 10.0 °F 63% 30.27 in 3.0 mi WNW 9.2 mph 27.6 mph 0.00 in Snow Light Snow
3:53 PM 21.0 °F 12.4 °F 6.1 °F 53% 30.28 in 10.0 mi Variable 6.9 mph 24.2 mph 0.00 in   Clear
4:53 PM 19.0 °F 6.8 °F 3.9 °F 52% 30.29 in 10.0 mi WNW 11.5 mph 17.3 mph N/A   Mostly Cloudy
5:53 PM 15.1 °F 7.7 °F 1.9 °F 56% 30.32 in 10.0 mi NW 4.6 mph - N/A   Partly Cloudy
6:53 PM 12.9 °F 3.8 °F 1.9 °F 62% 30.33 in 10.0 mi WNW 5.8 mph - N/A   Clear
7:53 PM 8.1 °F - 1.0 °F 73% 30.36 in 10.0 mi Calm Calm - N/A   Clear
8:53 PM 6.1 °F -4.3 °F -0.0 °F 76% 30.38 in 10.0 mi SSW 5.8 mph - N/A   Clear
9:53 PM 1.9 °F -7.6 °F -2.0 °F 83% 30.39 in 10.0 mi South 4.6 mph - N/A   Clear
10:53 PM 7.0 °F -5.7 °F -0.9 °F 70% 30.36 in 10.0 mi West 8.1 mph - N/A   Clear
11:53 PM 7.0 °F -1.7 °F -0.9 °F 70% 30.35 in 10.0 mi West 4.6 mph - N/A   Clear